2025-013C (62731 NORAD) Tracking and Keplerian Element Data

This shows tracking and keplerian element data for the satellite.

Feedback or suggestion? Click here.




ElementValue
Catalog62731
Name2025-013C
Epoch Orbit223
Epoch Day35.18351716
Epoch Year2025
RAAN202.1671
Inclination97.6126
Eccentricity0.0013817
Argument of Perigee233.5122
Mean Anonmoly126.4834
Mean Motion15.09654151
Decay Rate8.517E-05
L11 62731U 25013C 25035.18351716 .00008517 00000+0 53181-3 0 9998
L22 62731 97.6126 202.1671 0013817 233.5122 126.4834 15.09654151 2231



Live tracking and technical data element details for 2025-013C (NORAD 62731). 2025-013C can be tracked NOW for your location showing map with azimuth and elevation plus other details from your city location.







IsCatalogInMostPopularTable: catalog: 62731, numindb: 2
Update: records affected: 1



GetName: 62731 2025-013C

Hit Count: updated at: Sun, 09 Feb 2025 15:10:07 GMT